Regional Weather Roundup
Issued by NWS

Home | Current Version | Previous Version | Text Only | Print | Product List | Glossary On
Versions: 1 2 3 4 5 6 7 8 9 10 11 12 13 14 15 16 17 18 19 20 21 22 23 24 25 26 27 28 29 30 31 32 33 34 35 36 37 38 39 40 41 42 43 44 45 46 47 48 49 50
000
ASUS43 KLOT 010410
RWRIL

ILLINOIS REGIONAL WEATHER ROUNDUP
NATIONAL WEATHER SERVICE CHICAGO/ROMEOVILLE IL
1100 PM CDT THU JUL 31 2014

NOTE: "FAIR" INDICATES FEW OR NO CLOUDS BELOW 12,000 FEET WITH NO
SIGNIFICANT WEATHER AND/OR OBSTRUCTIONS TO VISIBILITY.

* THESE STATIONS ARE NOT UNDER NWS QUALITY CONTROL. THEY ALSO MAY NOT
  REPORT WEATHER SUCH AS PRECIPITATION OR FOG.

ILZ001-002-007-009-015-016-024-010500-
NORTHWEST ILLINOIS

CITY           SKY/WX    TMP DP  RH WIND       PRES   REMARKS
MOLINE         CLEAR     65  61  87 CALM      30.05S
STERLING*      PTCLDY    68  61  77 SW5       30.06R
SAVANNA*       PTCLDY    64  60  87 CALM      30.04S
$$

ILZ003-004-008-010-011-017-018-010500-
NORTH CENTRAL ILLINOIS

CITY           SKY/WX    TMP DP  RH WIND       PRES   REMARKS
ROCKFORD       CLEAR     65  58  78 S3        30.06S
FREEPORT*      CLEAR     65  59  81 SW6       30.07S
ROCHELLE*      CLEAR     60  58  92 CALM      30.06S
DE KALB*       CLEAR     63  58  83 SW3       30.07R
PERU*          CLEAR     69  62  79 SW3       30.06S
$$

ILZ005-006-012>014-019>023-010500-
NORTHEAST ILLINOIS

CITY           SKY/WX    TMP DP  RH WIND       PRES   REMARKS
CHICAGO-OHARE  CLEAR     71  57  61 SW5       30.04S
CHICAGO-MIDWAY CLEAR     74  62  66 SW7       30.04S
AURORA         CLEAR     62  59  90 CALM      30.06S
LANSING*       MOCLDY    66  62  85 S5        30.05S
JOLIET*        CLEAR     63  61  91 CALM      30.06S
WAUKEGAN       CLEAR     66  58  75 CALM      30.02S
DUPAGE AIRPORT CLEAR     65  59  81 SW3       30.04F
KANKAKEE*      CLEAR     66  62  86 SW3       30.07S
WHEELING       CLEAR     73  58  59 SW3       30.05S
MORRIS*        CLEAR     66  65  96 SW3       30.05S
ROMEOVILLE*    CLEAR     66  60  80 SW5       30.06R
NORTHERLY ISL    N/A     75  59  57 S3          N/A
$$

LMZ740>746-010500-
SOUTHERN LAKE MICHIGAN

STATION/POSITION SKY/WX   TEMP    WIND        PRES    VSBY  WAVE
                          AIR SEA DIR/SP/G                  HT/PER
                          (F)     (DEG/KT/KT) (MB)    (MI)  (FT/S)
SOUTHERN BUOY              66 63  210/  8/  8 1016.4F         0
WAUKEGAN HARBOR            72     250/  8/  9   N/A
HARRISON CRIB              76     250/  9/ 10   N/A
BURNHAM HARBOR             74     220/  4/  6   N/A
CALUMET HARBOR             74     230/  4/  6 1016.2S
MICHIGAN CITY              72     190/  9/ 11   N/A
MICHIGAN CITY 6N           72 69  240/  8/ 10   N/A           1/ 2
ST. JOSEPH                 70 69  180/  8/ 10   N/A           1/ 2
$$

ILZ025>027-034>036-040-047-049-050-058-095>099-010500-
WEST-CENTRAL ILLINOIS

CITY           SKY/WX    TMP DP  RH WIND       PRES   REMARKS
QUINCY         CLEAR     69  60  73 SE3       30.06S
GALESBURG*     CLEAR     62  60  94 CALM      30.06F
MACOMB*        PTCLDY    61  60  96 CALM      30.08S
JACKSONVILLE*  CLEAR     67  63  87 CALM      30.07F
PITTSFIELD*    CLEAR     65  62  90 CALM      30.08S
$$

ILZ028>032-037-038-041>044-048-051>054-059>061-010500-
CENTRAL ILLINOIS

CITY           SKY/WX    TMP DP  RH WIND       PRES   REMARKS
PONTIAC        CLEAR     63  63 100 CALM      30.07S FOG
DECATUR        CLEAR     63  59  87 NE3       30.08S
PEORIA         CLEAR     68  63  84 CALM      30.06F
LACON*         CLEAR     64  60  89 CALM      30.05S
LINCOLN*       CLEAR     66  63  89 CALM      30.05S
SPRINGFIELD    CLEAR     66  62  87 CALM      30.07S
TAYLORVILLE    CLEAR     64  61  88 CALM      30.07S
$$

ILZ033-039-045-046-055>057-062-063-010500-
EAST-CENTRAL ILLINOIS

CITY           SKY/WX    TMP DP  RH WIND       PRES   REMARKS
CHAMPAIGN      CLEAR     66  59  78 CALM      30.09S
DANVILLE*      CLEAR     62  60  96 CALM      30.06S FOG
RANTOUL*       CLEAR     65  61  87 CALM      30.09S
MATTOON        PTCLDY    67  64  90 CALM      30.07F
PARIS*         CLEAR     61  60  97 CALM      30.09S FOG
$$

ILZ079-100>102-010500-
SOUTHWEST ILLINOIS

CITY           SKY/WX    TMP DP  RH WIND       PRES   REMARKS
ALTON          PTCLDY    65  65 100 CALM      30.06S
BELLEVILLE     CLEAR     69  64  85 CALM      30.06S
CAHOKIA*       CLEAR     67  63  87 S3        30.06S
SPARTA*        MOCLDY    68  64  88 CALM      30.08S
$$

ILZ064>066-069>071-074>076-080>082-084>086-088>090-092>094-010500-
SOUTH-CENTRAL ILLINOIS

CITY           SKY/WX    TMP DP  RH WIND       PRES   REMARKS
CARBONDALE     CLEAR     65  63  93 CALM      30.08S
CAIRO*         CLEAR     66  62  86 CALM      30.08S
EFFINGHAM*     CLOUDY    68  60  76 CALM      30.08S
MARION         CLEAR     66  64  94 CALM      30.09R
MT. VERNON     CLEAR     64  61  88 CALM      30.09S
CENTRALIA*     CLEAR     64  60  87 CALM      30.07S
SALEM*         CLEAR     68  63  83 S3        30.08S
METROPOLIS*    CLEAR     62  59  90 CALM      30.08R
$$

ILZ067-068-072-073-078-083-087-091-010500-
SOUTHEAST ILLINOIS

CITY           SKY/WX    TMP DP  RH WIND       PRES   REMARKS
LAWRENCEVILLE  PTCLDY    67  64  90 CALM      30.08R
FLORA*         CLEAR     65  61  85 SW3       30.08S
FAIRFIELD*     CLEAR     64  63  94 CALM      30.08S
HARRISBURG*    MOCLDY    69  67  95 CALM      30.09S
ROBINSON*      CLEAR     63  62  97 CALM      30.09S
CARMI*         CLEAR     64  64 100 CALM      30.07S FOG
$$

ABBREVIATIONS USED IN REMARKS
   TC - TEMPERATURE IN CELSIUS
  WCI - WIND CHILL INDEX
   HX - HEAT INDEX
  VSB - VISIBILITY
$$




USA.gov is the U.S. government's official web portal to all federal, state and local government web resources and services.